This demonstration page uses our WeatherBlox Daily Observations layout. Learn more.

Left ArrowRight Arrow

41.55636, -103.73856

Hourly Observations for February 15, 2015

Temp ( °F °C ) Dew Point ( °F °C ) Humidity (%) Winds ( mph kmh ) Pressure ( in mb ) Visibility ( mi km ) Precip ( " mm )
12:53 am 00:53 Cloudy with Mist and Fog 28 -2.2 26 -3.3 92 92 E 5 7 30.12 1020 6 9.65604 0 0
1:53 am 01:53 Cloudy 28 -2.2 26 -3.3 92 92 Calm 30.13 1020 7 11.26538 0 0
2:53 am 02:53 Cloudy with Mist and Fog 28 -2.2 26 -3.3 92 92 WNW 3 6 30.14 1021 6 9.65604 0 0
3:53 am 03:53 Cloudy with Mist and Fog 28 -2.2 27 -2.8 96 96 WNW 6 9 30.14 1021 5 8.0467 0 0
4:53 am 04:53 Cloudy with Mist and Fog 28 -2.2 26 -3.3 92 92 WNW 9 15 30.15 1021 5 8.0467 0 0
5:11 am 05:11 Cloudy with Mist and Fog 28 -2.2 26 -3.3 92 92 WNW 10 17 30.24 1024 5 8.0467 0 0
5:53 am 05:53 Cloudy with Mist and Fog 28 -2.2 26 -3.3 92 92 NW 8 13 30.16 1022 4 6.43736 0 0
6:53 am 06:53 Cloudy with Mist and Fog 28 -2.2 27 -2.8 96 96 WNW 6 9 30.2 1023 4 6.43736 0 0
7:12 am 07:12 Cloudy with Mist and Fog 28 -2.2 27 -2.8 96 96 W 6 9 30.27 1025 3 4.82802 0 0
7:53 am 07:53 Cloudy with Mist and Fog 29 -1.7 27 -2.8 92 92 WNW 5 7 30.22 1023 4 6.43736 0 0
8:53 am 08:53 Cloudy with Light Snow 32 0 27 -2.8 82 82 Calm 30.22 1023 1.75 2.816345 0 0.0254
9:53 am 09:53 Cloudy with Light Snow 32 0 28 -2.2 85 85 Calm 30.24 1024 1.25 2.011675 0.01 0.254
10:01 am 10:01 Mostly Cloudy with Snow 32 0 29 -1.7 88 88 N 3 6 30.24 1024 0.5 0.80467 0 0.0254
10:37 am 10:37 Cloudy with Light Snow 32 0 30 -1.1 92 92 WNW 3 6 30.24 1024 0.75 1.207005 0.02 0.508
10:53 am 10:53 Cloudy with Snow 32 0 30 -1.1 92 92 W 3 6 30.24 1024 0.5 0.80467 0.02 0.508
11:23 am 11:23 Cloudy with Light Snow 33 0.6 31 -0.6 92 92 WNW 5 7 30.24 1024 0.75 1.207005 0.01 0.254
11:33 am 11:33 Cloudy with Light Snow 34 1.1 32 0 92 92 WNW 7 11 30.24 1024 1 1.60934 0.02 0.508
11:53 am 11:53 Cloudy with Light Snow 34 1.1 32 0 92 92 NW 8 13 30.22 1023 1.75 2.816345 0.02 0.508
12:01 pm 12:01 Cloudy with Light Snow 35 1.7 32 0 89 89 NW 7 11 30.21 1023 3 4.82802 0 0.0254
12:11 pm 12:11 Cloudy with Light Snow 35 1.7 33 0.6 93 93 NW 7 11 30.21 1023 4 6.43736 0 0.0254
12:38 pm 12:38 Cloudy with Light Snow 36 2 32 0 87 87 WNW 9 15 30.21 1023 1.75 2.816345 0 0
12:49 pm 12:49 Cloudy with Light Snow 36 2 36 2 100 100 WNW 9 15 30.21 1023 2 3.21868 0 0.0254
12:53 pm 12:53 Cloudy with Light Snow 36 2.2 36 2.2 100 100 WNW 9 15 30.19 1023 2.5 4.02335 0 0.0254
1:00 pm 13:00 Cloudy with Light Snow 37 3 37 3 100 100 NW 8 13 30.21 1023 4 6.43736 0 0
1:20 pm 13:20 Cloudy with Light Snow 37 3 36 2 93 93 NW 16 26 30.21 1023 9 14.48406 0 0
1:45 pm 13:45 Cloudy 37 2.8 36 2.2 96 96 NW 14 22 30.21 1023 10 16.0934 0 0.0254
1:53 pm 13:53 Cloudy 37 2.8 36 2.2 96 96 NW 15 24 30.17 1022 10 16.0934 0 0.0254
2:36 pm 14:36 Cloudy 37 3 37 3 100 100 WNW 10 17 30.21 1023 10 16.0934 0 0
2:53 pm 14:53 Cloudy 38 3.3 36 2.2 93 93 NNW 15 24 30.17 1022 10 16.0934 0 0
3:07 pm 15:07 Cloudy 38 3.3 31 -0.6 76 76 NNW 13 20 30.21 1023 10 16.0934 0 0
3:53 pm 15:53 Cloudy 39 3.9 30 -1.1 70 70 NNW 10 17 30.17 1022 10 16.0934 0 0
4:53 pm 16:53 Cloudy 37 2.8 29 -1.7 73 73 NNW 8 13 30.19 1022 10 16.0934 0 0
5:53 pm 17:53 Cloudy 35 1.7 29 -1.7 78 78 NW 6 9 30.21 1023 10 16.0934 0 0
6:53 pm 18:53 Mostly Cloudy 32 0 27 -2.8 82 82 NNW 7 11 30.22 1023 10 16.0934 0 0
7:53 pm 19:53 Cloudy 31 -0.6 27 -2.8 85 85 W 5 7 30.22 1024 10 16.0934 0 0
8:53 pm 20:53 Cloudy 32 0 25 -3.9 75 75 NNW 7 11 30.21 1023 10 16.0934 0 0
9:53 pm 21:53 Cloudy 29 -1.7 25 -3.9 85 85 W 5 7 30.21 1023 10 16.0934 0 0
10:53 pm 22:53 Clear 27 -3 23 -5 86 86 WNW 8 13 30.3 1026 10 16.0934 0 0
11:53 pm 23:53 Cloudy 27 -2.8 24 -4.4 89 89 WNW 6 9 30.21 1023 10 16.0934 0 0

Powered by AerisWeather